Time,TemperatureF,DewpointF,PressureIn,WindDirection,WindDirectionDegrees,WindSpeedMPH,WindSpeedGustMPH,Humidity,HourlyPrecipIn,Conditions,Clouds,dailyrainin,SoftwareType,DateUTC
2013-11-05 00:01:00,55.6,47.8,30.14,WSW,251,5.0,5.0,75,0.00,,,0.00,Wunderground v.1.15,2013-11-05 06:01:00,
2013-11-05 00:07:00,55.5,48.1,30.14,WSW,247,4.0,7.0,76,0.00,,,0.00,Wunderground v.1.15,2013-11-05 06:07:00,
2013-11-05 00:13:00,55.5,48.1,30.14,WSW,250,4.0,4.0,76,0.00,,,0.00,Wunderground v.1.15,2013-11-05 06:13:00,
2013-11-05 00:18:00,55.4,48.0,30.15,WSW,247,4.0,7.0,76,0.00,,,0.00,Wunderground v.1.15,2013-11-05 06:18:00,
2013-11-05 00:30:00,55.2,48.1,30.15,WSW,248,5.0,7.0,77,0.00,,,0.00,Wunderground v.1.15,2013-11-05 06:30:00,
2013-11-05 00:36:00,55.2,48.1,30.15,WSW,257,5.0,11.0,77,0.00,,,0.00,Wunderground v.1.15,2013-11-05 06:36:00,
2013-11-05 00:41:00,55.1,48.0,30.15,WSW,257,5.0,11.0,77,0.00,,,0.00,Wunderground v.1.15,2013-11-05 06:41:00,
2013-11-05 00:47:00,55.0,47.9,30.15,WSW,257,5.0,11.0,77,0.00,,,0.00,Wunderground v.1.15,2013-11-05 06:47:00,
2013-11-05 00:52:00,55.0,48.3,30.15,WSW,256,5.0,11.0,78,0.00,,,0.00,Wunderground v.1.15,2013-11-05 06:52:00,
2013-11-05 01:01:00,54.8,48.1,30.15,WSW,247,5.0,11.0,78,0.00,,,0.00,Wunderground v.1.15,2013-11-05 07:01:00,
2013-11-05 01:07:00,54.7,48.0,30.15,SW,232,5.0,11.0,78,0.00,,,0.00,Wunderground v.1.15,2013-11-05 07:07:00,
2013-11-05 01:12:00,54.5,48.1,30.15,WSW,248,5.0,11.0,79,0.00,,,0.00,Wunderground v.1.15,2013-11-05 07:12:00,
2013-11-05 01:23:00,54.5,48.1,30.15,WSW,247,4.0,11.0,79,0.00,,,0.00,Wunderground v.1.15,2013-11-05 07:23:00,
2013-11-05 01:29:00,54.4,48.0,30.15,WSW,247,5.0,11.0,79,0.00,,,0.00,Wunderground v.1.15,2013-11-05 07:29:00,
2013-11-05 01:34:00,54.5,48.1,30.15,WSW,247,5.0,11.0,79,0.00,,,0.00,Wunderground v.1.15,2013-11-05 07:34:00,
2013-11-05 01:39:00,54.6,48.2,30.15,WSW,253,5.0,11.0,79,0.00,,,0.00,Wunderground v.1.15,2013-11-05 07:39:00,
2013-11-05 01:45:00,54.5,48.1,30.15,WSW,253,4.0,11.0,79,0.00,,,0.00,Wunderground v.1.15,2013-11-05 07:45:00,
2013-11-05 01:54:00,54.4,48.0,30.15,WSW,252,4.0,11.0,79,0.00,,,0.00,Wunderground v.1.15,2013-11-05 07:54:00,
2013-11-05 02:00:00,54.5,48.1,30.15,WSW,252,5.0,11.0,79,0.00,,,0.00,Wunderground v.1.15,2013-11-05 08:00:00,
2013-11-05 02:09:00,54.6,48.2,30.15,WSW,248,6.0,11.0,79,0.00,,,0.00,Wunderground v.1.15,2013-11-05 08:09:00,
2013-11-05 02:15:00,54.7,48.3,30.15,West,263,6.0,11.0,79,0.00,,,0.00,Wunderground v.1.15,2013-11-05 08:15:00,
2013-11-05 02:21:00,54.8,48.4,30.15,WSW,251,7.0,11.0,79,0.00,,,0.00,Wunderground v.1.15,2013-11-05 08:21:00,
2013-11-05 02:26:00,54.8,48.7,30.15,WSW,250,7.0,11.0,80,0.00,,,0.00,Wunderground v.1.15,2013-11-05 08:26:00,
2013-11-05 02:32:00,54.8,48.7,30.15,West,272,7.0,11.0,80,0.00,,,0.00,Wunderground v.1.15,2013-11-05 08:32:00,
2013-11-05 02:37:00,54.8,48.7,30.15,WSW,255,7.0,11.0,80,0.00,,,0.00,Wunderground v.1.15,2013-11-05 08:37:00,
2013-11-05 02:43:00,54.8,49.1,30.15,WSW,252,8.0,11.0,81,0.00,,,0.00,Wunderground v.1.15,2013-11-05 08:43:00,
2013-11-05 02:48:00,54.8,49.4,30.15,West,275,8.0,12.0,82,0.00,,,0.00,Wunderground v.1.15,2013-11-05 08:48:00,
2013-11-05 02:54:00,54.5,49.4,30.15,West,268,8.0,11.0,83,0.00,,,0.00,Wunderground v.1.15,2013-11-05 08:54:00,
2013-11-05 02:59:00,54.3,49.6,30.15,WSW,250,8.0,11.0,84,0.00,,,0.00,Wunderground v.1.15,2013-11-05 08:59:00,
2013-11-05 03:05:00,54.0,49.6,30.15,WSW,238,8.0,11.0,85,0.00,,,0.00,Wunderground v.1.15,2013-11-05 09:05:00,
2013-11-05 03:11:00,53.8,49.7,30.15,WSW,255,7.0,11.0,86,0.00,,,0.00,Wunderground v.1.15,2013-11-05 09:11:00,
2013-11-05 03:17:00,53.6,49.8,30.15,WSW,252,6.0,11.0,87,0.00,,,0.00,Wunderground v.1.15,2013-11-05 09:17:00,
2013-11-05 03:22:00,53.5,49.7,30.15,West,263,6.0,11.0,87,0.00,,,0.00,Wunderground v.1.15,2013-11-05 09:22:00,
2013-11-05 03:27:00,53.5,49.7,30.14,WSW,254,6.0,11.0,87,0.00,,,0.00,Wunderground v.1.15,2013-11-05 09:27:00,
2013-11-05 03:33:00,53.3,49.5,30.14,WSW,246,6.0,11.0,87,0.00,,,0.00,Wunderground v.1.15,2013-11-05 09:33:00,
2013-11-05 03:39:00,53.3,49.8,30.15,WSW,256,6.0,11.0,88,0.00,,,0.00,Wunderground v.1.15,2013-11-05 09:39:00,
2013-11-05 03:44:00,53.2,49.7,30.15,WSW,257,6.0,11.0,88,0.00,,,0.00,Wunderground v.1.15,2013-11-05 09:44:00,
2013-11-05 03:49:00,53.2,49.7,30.15,West,259,6.0,11.0,88,0.00,,,0.00,Wunderground v.1.15,2013-11-05 09:49:00,
2013-11-05 03:55:00,53.3,49.8,30.15,WSW,257,5.0,11.0,88,0.00,,,0.00,Wunderground v.1.15,2013-11-05 09:55:00,
2013-11-05 04:01:00,53.3,49.8,30.15,WSW,257,4.0,11.0,88,0.00,,,0.00,Wunderground v.1.15,2013-11-05 10:01:00,
2013-11-05 04:06:00,53.3,49.8,30.15,WSW,257,4.0,11.0,88,0.00,,,0.00,Wunderground v.1.15,2013-11-05 10:06:00,
2013-11-05 04:17:00,53.2,49.7,30.15,WSW,257,2.0,11.0,88,0.00,,,0.00,Wunderground v.1.15,2013-11-05 10:17:00,
2013-11-05 04:23:00,53.2,49.7,30.15,WSW,257,2.0,11.0,88,0.00,,,0.00,Wunderground v.1.15,2013-11-05 10:23:00,
2013-11-05 04:28:00,53.2,49.7,30.16,WSW,257,2.0,11.0,88,0.00,,,0.00,Wunderground v.1.15,2013-11-05 10:28:00,
2013-11-05 04:33:00,53.2,49.7,30.16,WSW,257,2.0,11.0,88,0.00,,,0.00,Wunderground v.1.15,2013-11-05 10:33:00,
2013-11-05 04:39:00,53.2,49.7,30.16,WSW,257,3.0,11.0,88,0.00,,,0.00,Wunderground v.1.15,2013-11-05 10:39:00,
2013-11-05 04:45:00,53.3,49.8,30.16,WSW,257,3.0,11.0,88,0.00,,,0.00,Wunderground v.1.15,2013-11-05 10:45:00,
2013-11-05 04:50:00,53.4,49.9,30.16,WSW,257,3.0,11.0,88,0.00,,,0.00,Wunderground v.1.15,2013-11-05 10:50:00,
2013-11-05 04:56:00,53.4,49.9,30.16,WSW,257,3.0,11.0,88,0.00,,,0.00,Wunderground v.1.15,2013-11-05 10:56:00,
2013-11-05 05:01:00,53.4,49.9,30.15,WSW,257,2.0,11.0,88,0.00,,,0.00,Wunderground v.1.15,2013-11-05 11:01:00,
2013-11-05 05:07:00,53.3,50.1,30.16,WSW,257,2.0,11.0,89,0.00,,,0.00,Wunderground v.1.15,2013-11-05 11:07:00,
2013-11-05 05:12:00,53.1,49.9,30.16,WSW,257,3.0,11.0,89,0.00,,,0.00,Wunderground v.1.15,2013-11-05 11:12:00,
2013-11-05 05:18:00,53.0,50.1,30.16,WSW,257,4.0,11.0,90,0.00,,,0.00,Wunderground v.1.15,2013-11-05 11:18:00,
2013-11-05 05:23:00,53.0,50.4,30.16,WSW,254,4.0,11.0,91,0.00,,,0.00,Wunderground v.1.15,2013-11-05 11:23:00,
2013-11-05 05:28:00,53.0,50.4,30.16,WSW,252,5.0,11.0,91,0.00,,,0.00,Wunderground v.1.15,2013-11-05 11:28:00,
2013-11-05 05:34:00,53.0,50.4,30.17,WSW,250,5.0,11.0,91,0.00,,,0.00,Wunderground v.1.15,2013-11-05 11:34:00,
2013-11-05 05:40:00,53.0,50.7,30.16,WSW,250,5.0,11.0,92,0.00,,,0.00,Wunderground v.1.15,2013-11-05 11:40:00,
2013-11-05 05:45:00,52.9,50.6,30.16,WSW,250,5.0,11.0,92,0.00,,,0.00,Wunderground v.1.15,2013-11-05 11:45:00,
2013-11-05 05:51:00,52.8,50.5,30.16,WSW,250,5.0,11.0,92,0.00,,,0.00,Wunderground v.1.15,2013-11-05 11:51:00,
2013-11-05 05:56:00,52.8,50.5,30.16,WSW,250,5.0,11.0,92,0.00,,,0.00,Wunderground v.1.15,2013-11-05 11:56:00,
2013-11-05 06:02:00,52.8,50.8,30.16,WSW,250,3.0,11.0,93,0.00,,,0.00,Wunderground v.1.15,2013-11-05 12:02:00,
2013-11-05 06:08:00,52.8,50.8,30.16,WSW,250,3.0,11.0,93,0.00,,,0.00,Wunderground v.1.15,2013-11-05 12:08:00,
2013-11-05 06:13:00,52.7,50.7,30.16,WSW,250,3.0,11.0,93,0.00,,,0.00,Wunderground v.1.15,2013-11-05 12:13:00,
2013-11-05 06:18:00,52.7,50.7,30.16,WSW,250,3.0,11.0,93,0.00,,,0.00,Wunderground v.1.15,2013-11-05 12:18:00,
2013-11-05 06:24:00,52.7,50.7,30.16,WSW,244,3.0,11.0,93,0.00,,,0.00,Wunderground v.1.15,2013-11-05 12:24:00,
2013-11-05 06:30:00,52.8,50.8,30.16,WSW,243,3.0,3.0,93,0.00,,,0.00,Wunderground v.1.15,2013-11-05 12:30:00,
2013-11-05 06:35:00,52.7,50.7,30.17,WSW,242,2.0,11.0,93,0.00,,,0.00,Wunderground v.1.15,2013-11-05 12:35:00,
2013-11-05 06:41:00,52.7,50.7,30.17,SW,215,3.0,11.0,93,0.00,,,0.00,Wunderground v.1.15,2013-11-05 12:41:00,
2013-11-05 06:46:00,52.6,50.6,30.17,WSW,244,4.0,11.0,93,0.00,,,0.00,Wunderground v.1.15,2013-11-05 12:46:00,
2013-11-05 06:52:00,52.6,50.6,30.17,SW,234,5.0,11.0,93,0.00,,,0.00,Wunderground v.1.15,2013-11-05 12:52:00,
2013-11-05 06:57:00,52.5,50.8,30.17,SW,234,4.0,11.0,94,0.00,,,0.00,Wunderground v.1.15,2013-11-05 12:57:00,
2013-11-05 07:03:00,52.4,50.7,30.18,WSW,244,5.0,11.0,94,0.00,,,0.00,Wunderground v.1.15,2013-11-05 13:03:00,
2013-11-05 07:08:00,52.4,50.7,30.17,WSW,239,6.0,11.0,94,0.00,,,0.00,Wunderground v.1.15,2013-11-05 13:08:00,
2013-11-05 07:14:00,52.3,50.9,30.17,SW,236,6.0,11.0,95,0.00,,,0.00,Wunderground v.1.15,2013-11-05 13:14:00,
2013-11-05 07:19:00,52.3,50.9,30.17,WSW,237,5.0,11.0,95,0.00,,,0.00,Wunderground v.1.15,2013-11-05 13:19:00,
2013-11-05 07:25:00,52.4,51.0,30.17,WSW,243,6.0,11.0,95,0.00,,,0.00,Wunderground v.1.15,2013-11-05 13:25:00,
2013-11-05 07:30:00,52.3,50.9,30.17,SW,236,5.0,5.0,95,0.00,,,0.00,Wunderground v.1.15,2013-11-05 13:30:00,
2013-11-05 07:36:00,52.3,50.9,30.17,WSW,237,4.0,11.0,95,0.00,,,0.00,Wunderground v.1.15,2013-11-05 13:36:00,
2013-11-05 07:41:00,52.3,50.9,30.17,SSW,210,4.0,11.0,95,0.00,,,0.00,Wunderground v.1.15,2013-11-05 13:41:00,
2013-11-05 07:47:00,52.3,50.9,30.17,WSW,242,4.0,11.0,95,0.00,,,0.00,Wunderground v.1.15,2013-11-05 13:47:00,
2013-11-05 07:52:00,52.4,51.0,30.17,WSW,238,5.0,11.0,95,0.00,,,0.00,Wunderground v.1.15,2013-11-05 13:52:00,
2013-11-05 07:58:00,52.4,51.0,30.17,WSW,240,6.0,11.0,95,0.00,,,0.00,Wunderground v.1.15,2013-11-05 13:58:00,
2013-11-05 08:03:00,52.4,51.0,30.17,SW,234,5.0,11.0,95,0.00,,,0.00,Wunderground v.1.15,2013-11-05 14:03:00,
2013-11-05 08:09:00,52.4,51.0,30.17,SW,236,5.0,11.0,95,0.00,,,0.00,Wunderground v.1.15,2013-11-05 14:09:00,
2013-11-05 08:14:00,52.4,51.0,30.17,SW,236,5.0,11.0,95,0.00,,,0.00,Wunderground v.1.15,2013-11-05 14:14:00,
2013-11-05 08:20:00,52.4,51.0,30.17,SW,236,4.0,11.0,95,0.00,,,0.01,Wunderground v.1.15,2013-11-05 14:20:00,
2013-11-05 08:25:00,52.4,51.0,30.17,WSW,237,4.0,11.0,95,0.06,,,0.02,Wunderground v.1.15,2013-11-05 14:25:00,
2013-11-05 08:31:00,52.5,51.4,30.17,SW,236,5.0,11.0,96,0.06,,,0.02,Wunderground v.1.15,2013-11-05 14:31:00,
2013-11-05 08:36:00,52.5,51.4,30.17,SW,234,5.0,11.0,96,0.05,,,0.02,Wunderground v.1.15,2013-11-05 14:36:00,
2013-11-05 08:42:00,52.5,51.4,30.17,WSW,238,5.0,11.0,96,0.04,,,0.02,Wunderground v.1.15,2013-11-05 14:42:00,
2013-11-05 08:47:00,52.5,51.4,30.16,WSW,238,4.0,11.0,96,0.00,,,0.02,Wunderground v.1.15,2013-11-05 14:47:00,
2013-11-05 08:53:00,52.6,51.5,30.16,WSW,243,4.0,11.0,96,0.00,,,0.02,Wunderground v.1.15,2013-11-05 14:53:00,
2013-11-05 08:59:00,52.7,51.6,30.16,WSW,242,4.0,11.0,96,0.00,,,0.03,Wunderground v.1.15,2013-11-05 14:59:00,
2013-11-05 09:05:00,52.8,51.7,30.16,WSW,244,6.0,11.0,96,0.07,,,0.04,Wunderground v.1.15,2013-11-05 15:05:00,
2013-11-05 09:11:00,52.9,51.8,30.16,SW,234,5.0,9.0,96,0.07,,,0.04,Wunderground v.1.15,2013-11-05 15:11:00,
2013-11-05 09:16:00,53.0,51.9,30.15,SW,234,5.0,11.0,96,0.04,,,0.04,Wunderground v.1.15,2013-11-05 15:16:00,
2013-11-05 09:22:00,53.0,51.9,30.15,WSW,257,5.0,11.0,96,0.00,,,0.04,Wunderground v.1.15,2013-11-05 15:22:00,
2013-11-05 09:27:00,53.1,52.0,30.15,SW,219,6.0,11.0,96,0.00,,,0.04,Wunderground v.1.15,2013-11-05 15:27:00,
2013-11-05 09:33:00,53.2,52.1,30.15,WSW,250,6.0,11.0,96,0.00,,,0.04,Wunderground v.1.15,2013-11-05 15:33:00,
2013-11-05 09:38:00,53.3,52.2,30.15,SW,219,6.0,11.0,96,0.00,,,0.04,Wunderground v.1.15,2013-11-05 15:38:00,
2013-11-05 09:44:00,53.4,52.3,30.15,WSW,240,7.0,11.0,96,0.00,,,0.04,Wunderground v.1.15,2013-11-05 15:44:00,
2013-11-05 09:49:00,53.4,52.3,30.15,WSW,244,7.0,11.0,96,0.00,,,0.04,Wunderground v.1.15,2013-11-05 15:49:00,
2013-11-05 09:55:00,53.5,52.4,30.15,WSW,246,7.0,11.0,96,0.00,,,0.05,Wunderground v.1.15,2013-11-05 15:55:00,
2013-11-05 10:00:00,53.5,52.4,30.15,West,261,6.0,11.0,96,0.00,,,0.05,Wunderground v.1.15,2013-11-05 16:00:00,
2013-11-05 10:06:00,53.5,52.4,30.15,WSW,240,6.0,11.0,96,0.00,,,0.05,Wunderground v.1.15,2013-11-05 16:06:00,
2013-11-05 10:11:00,53.6,52.2,30.15,WSW,251,7.0,11.0,95,0.04,,,0.06,Wunderground v.1.15,2013-11-05 16:11:00,
2013-11-05 10:17:00,53.7,52.3,30.15,WSW,240,7.0,11.0,95,0.04,,,0.06,Wunderground v.1.15,2013-11-05 16:17:00,
2013-11-05 10:22:00,53.8,52.4,30.14,WSW,240,7.0,11.0,95,0.04,,,0.06,Wunderground v.1.15,2013-11-05 16:22:00,
2013-11-05 10:28:00,54.0,52.9,30.14,WSW,252,6.0,11.0,96,0.00,,,0.07,Wunderground v.1.15,2013-11-05 16:28:00,
2013-11-05 10:33:00,54.2,53.1,30.14,WSW,246,7.0,11.0,96,0.00,,,0.07,Wunderground v.1.15,2013-11-05 16:33:00,
2013-11-05 10:39:00,54.4,53.0,30.14,WSW,246,7.0,11.0,95,0.00,,,0.07,Wunderground v.1.15,2013-11-05 16:39:00,
2013-11-05 10:44:00,54.4,53.0,30.13,WSW,246,7.0,11.0,95,0.00,,,0.07,Wunderground v.1.15,2013-11-05 16:44:00,
2013-11-05 10:50:00,54.4,53.0,30.13,WSW,258,8.0,8.0,95,0.00,,,0.07,Wunderground v.1.15,2013-11-05 16:50:00,
2013-11-05 10:56:00,54.4,53.0,30.13,WSW,244,9.0,13.0,95,0.00,,,0.07,Wunderground v.1.15,2013-11-05 16:56:00,
2013-11-05 11:01:00,54.5,53.1,30.13,SW,227,9.0,11.0,95,0.00,,,0.07,Wunderground v.1.15,2013-11-05 17:01:00,
2013-11-05 11:08:00,54.5,53.1,30.12,WSW,256,8.0,11.0,95,0.00,,,0.08,Wunderground v.1.15,2013-11-05 17:08:00,
2013-11-05 11:14:00,54.4,53.0,30.12,WSW,244,9.0,12.0,95,0.00,,,0.08,Wunderground v.1.15,2013-11-05 17:14:00,
2013-11-05 11:20:00,54.5,53.1,30.11,WSW,237,9.0,14.0,95,0.00,,,0.08,Wunderground v.1.15,2013-11-05 17:20:00,
2013-11-05 11:25:00,54.5,53.1,30.11,SW,236,8.0,15.0,95,0.00,,,0.08,Wunderground v.1.15,2013-11-05 17:25:00,
2013-11-05 11:31:00,54.5,53.1,30.11,WSW,248,9.0,12.0,95,0.00,,,0.08,Wunderground v.1.15,2013-11-05 17:31:00,
2013-11-05 11:36:00,54.6,53.2,30.11,SW,232,9.0,12.0,95,0.00,,,0.08,Wunderground v.1.15,2013-11-05 17:36:00,
2013-11-05 11:42:00,54.7,53.3,30.10,WSW,256,9.0,11.0,95,0.00,,,0.08,Wunderground v.1.15,2013-11-05 17:42:00,
2013-11-05 11:47:00,54.8,53.4,30.10,WSW,253,9.0,11.0,95,0.00,,,0.08,Wunderground v.1.15,2013-11-05 17:47:00,
2013-11-05 11:53:00,55.0,53.6,30.09,WSW,250,9.0,13.0,95,0.00,,,0.09,Wunderground v.1.15,2013-11-05 17:53:00,
2013-11-05 11:58:00,55.0,53.6,30.09,West,259,9.0,13.0,95,0.00,,,0.09,Wunderground v.1.15,2013-11-05 17:58:00,
2013-11-05 12:04:00,55.2,53.8,30.09,West,259,9.0,11.0,95,0.00,,,0.09,Wunderground v.1.15,2013-11-05 18:04:00,
2013-11-05 12:10:00,55.4,54.0,30.08,WSW,246,8.0,11.0,95,0.00,,,0.09,Wunderground v.1.15,2013-11-05 18:10:00,
2013-11-05 12:25:00,55.5,53.8,30.07,SW,234,8.0,12.0,94,0.00,,,0.09,Wunderground v.1.15,2013-11-05 18:25:00,
2013-11-05 12:31:00,55.7,54.0,30.06,SW,230,8.0,8.0,94,0.00,,,0.09,Wunderground v.1.15,2013-11-05 18:31:00,
2013-11-05 12:37:00,56.3,54.9,30.06,WSW,238,7.0,11.0,95,0.00,,,0.09,Wunderground v.1.15,2013-11-05 18:37:00,
2013-11-05 12:42:00,56.6,54.9,30.06,SW,236,8.0,11.0,94,0.00,,,0.10,Wunderground v.1.15,2013-11-05 18:42:00,
2013-11-05 12:48:00,56.9,55.2,30.05,WSW,237,8.0,11.0,94,0.00,,,0.10,Wunderground v.1.15,2013-11-05 18:48:00,
2013-11-05 12:53:00,57.1,55.4,30.05,WSW,240,9.0,11.0,94,0.00,,,0.10,Wunderground v.1.15,2013-11-05 18:53:00,
2013-11-05 12:59:00,57.4,55.7,30.05,WSW,249,9.0,14.0,94,0.00,,,0.10,Wunderground v.1.15,2013-11-05 18:59:00,
2013-11-05 13:04:00,57.4,55.4,30.05,WSW,251,8.0,12.0,93,0.00,,,0.10,Wunderground v.1.15,2013-11-05 19:04:00,
2013-11-05 13:10:00,57.5,55.5,30.05,South,188,8.0,11.0,93,0.00,,,0.10,Wunderground v.1.15,2013-11-05 19:10:00,
2013-11-05 13:15:00,57.4,55.1,30.04,WSW,243,10.0,14.0,92,0.00,,,0.10,Wunderground v.1.15,2013-11-05 19:15:00,
2013-11-05 13:21:00,57.3,55.0,30.04,West,261,10.0,11.0,92,0.00,,,0.10,Wunderground v.1.15,2013-11-05 19:21:00,
2013-11-05 13:26:00,57.3,55.0,30.03,West,263,9.0,13.0,92,0.00,,,0.10,Wunderground v.1.15,2013-11-05 19:26:00,
2013-11-05 13:32:00,57.4,55.1,30.03,WSW,245,9.0,11.0,92,0.00,,,0.10,Wunderground v.1.15,2013-11-05 19:32:00,
2013-11-05 13:37:00,57.5,55.2,30.03,SW,225,8.0,11.0,92,0.00,,,0.10,Wunderground v.1.15,2013-11-05 19:37:00,
2013-11-05 13:43:00,57.6,55.3,30.02,SW,232,8.0,12.0,92,0.00,,,0.10,Wunderground v.1.15,2013-11-05 19:43:00,
2013-11-05 13:48:00,57.7,55.4,30.02,WSW,246,9.0,12.0,92,0.00,,,0.10,Wunderground v.1.15,2013-11-05 19:48:00,
2013-11-05 13:54:00,57.8,55.5,30.02,WSW,239,9.0,12.0,92,0.00,,,0.10,Wunderground v.1.15,2013-11-05 19:54:00,
2013-11-05 14:00:00,57.9,55.3,30.02,WSW,251,9.0,16.0,91,0.00,,,0.10,Wunderground v.1.15,2013-11-05 20:00:00,
2013-11-05 14:06:00,57.9,55.3,30.02,West,276,10.0,18.0,91,0.00,,,0.10,Wunderground v.1.15,2013-11-05 20:06:00,
2013-11-05 14:12:00,57.8,55.2,30.02,SW,225,8.0,11.0,91,0.00,,,0.10,Wunderground v.1.15,2013-11-05 20:12:00,
2013-11-05 14:17:00,57.7,55.1,30.01,SW,234,8.0,12.0,91,0.00,,,0.10,Wunderground v.1.15,2013-11-05 20:17:00,
2013-11-05 14:22:00,57.7,54.8,30.01,WSW,250,10.0,11.0,90,0.00,,,0.10,Wunderground v.1.15,2013-11-05 20:22:00,
2013-11-05 14:28:00,57.7,54.8,30.00,SW,232,11.0,15.0,90,0.00,,,0.10,Wunderground v.1.15,2013-11-05 20:28:00,
2013-11-05 14:34:00,57.7,54.8,30.00,WSW,252,11.0,13.0,90,0.00,,,0.10,Wunderground v.1.15,2013-11-05 20:34:00,
2013-11-05 14:39:00,57.6,54.7,30.00,SW,231,11.0,14.0,90,0.00,,,0.10,Wunderground v.1.15,2013-11-05 20:39:00,
2013-11-05 14:45:00,57.4,54.5,30.00,WSW,250,9.0,13.0,90,0.00,,,0.10,Wunderground v.1.15,2013-11-05 20:45:00,
2013-11-05 14:50:00,57.2,54.6,30.00,South,178,9.0,11.0,91,0.00,,,0.10,Wunderground v.1.15,2013-11-05 20:50:00,
2013-11-05 14:56:00,57.1,54.5,30.00,SW,229,9.0,13.0,91,0.00,,,0.10,Wunderground v.1.15,2013-11-05 20:56:00,
2013-11-05 15:01:00,57.0,54.4,30.00,SW,229,9.0,11.0,91,0.00,,,0.10,Wunderground v.1.15,2013-11-05 21:01:00,
2013-11-05 15:07:00,57.0,54.4,30.00,South,180,8.0,11.0,91,0.00,,,0.10,Wunderground v.1.15,2013-11-05 21:07:00,
2013-11-05 15:12:00,56.9,54.3,30.00,WSW,250,8.0,13.0,91,0.00,,,0.10,Wunderground v.1.15,2013-11-05 21:12:00,
2013-11-05 15:18:00,56.8,54.2,30.00,WSW,237,9.0,13.0,91,0.00,,,0.10,Wunderground v.1.15,2013-11-05 21:18:00,
2013-11-05 15:23:00,56.8,54.5,30.00,SW,225,9.0,11.0,92,0.00,,,0.10,Wunderground v.1.15,2013-11-05 21:23:00,
2013-11-05 15:29:00,56.9,54.6,29.99,WSW,239,8.0,11.0,92,0.00,,,0.10,Wunderground v.1.15,2013-11-05 21:29:00,
2013-11-05 15:34:00,56.9,54.3,29.99,SW,233,7.0,11.0,91,0.00,,,0.10,Wunderground v.1.15,2013-11-05 21:34:00,
2013-11-05 15:40:00,56.9,54.3,29.99,WSW,252,7.0,7.0,91,0.00,,,0.10,Wunderground v.1.15,2013-11-05 21:40:00,
2013-11-05 15:45:00,56.9,54.3,29.98,WSW,252,7.0,11.0,91,0.00,,,0.10,Wunderground v.1.15,2013-11-05 21:45:00,
2013-11-05 15:51:00,57.0,54.4,29.98,SW,223,7.0,11.0,91,0.00,,,0.10,Wunderground v.1.15,2013-11-05 21:51:00,
2013-11-05 15:56:00,57.0,54.4,29.98,WSW,238,7.0,11.0,91,0.00,,,0.10,Wunderground v.1.15,2013-11-05 21:56:00,
2013-11-05 16:02:00,57.1,54.5,29.98,SW,217,8.0,9.0,91,0.00,,,0.10,Wunderground v.1.15,2013-11-05 22:02:00,
2013-11-05 16:07:00,57.1,54.5,29.98,West,269,8.0,18.0,91,0.00,,,0.10,Wunderground v.1.15,2013-11-05 22:07:00,
2013-11-05 16:13:00,57.2,54.3,29.98,WSW,240,9.0,11.0,90,0.00,,,0.10,Wunderground v.1.15,2013-11-05 22:13:00,
2013-11-05 16:19:00,57.1,54.5,29.98,WSW,243,9.0,11.0,91,0.00,,,0.10,Wunderground v.1.15,2013-11-05 22:19:00,
2013-11-05 16:24:00,57.0,54.4,29.98,SW,236,8.0,13.0,91,0.00,,,0.10,Wunderground v.1.15,2013-11-05 22:24:00,
2013-11-05 16:29:00,56.7,54.4,29.98,SW,236,8.0,13.0,92,0.00,,,0.10,Wunderground v.1.15,2013-11-05 22:29:00,
2013-11-05 16:35:00,56.5,54.5,29.98,WSW,244,8.0,12.0,93,0.00,,,0.10,Wunderground v.1.15,2013-11-05 22:35:00,
2013-11-05 16:41:00,56.4,54.4,29.97,SW,230,9.0,11.0,93,0.00,,,0.10,Wunderground v.1.15,2013-11-05 22:41:00,
2013-11-05 16:46:00,56.3,54.6,29.97,SW,216,9.0,11.0,94,0.00,,,0.11,Wunderground v.1.15,2013-11-05 22:46:00,
2013-11-05 16:52:00,56.2,54.5,29.97,WSW,238,7.0,11.0,94,0.00,,,0.11,Wunderground v.1.15,2013-11-05 22:52:00,
2013-11-05 16:57:00,56.1,54.4,29.97,SW,232,7.0,11.0,94,0.00,,,0.11,Wunderground v.1.15,2013-11-05 22:57:00,
2013-11-05 17:03:00,56.1,54.4,29.96,SSW,208,7.0,11.0,94,0.00,,,0.11,Wunderground v.1.15,2013-11-05 23:03:00,
2013-11-05 17:08:00,56.1,54.4,29.97,WSW,248,6.0,11.0,94,0.00,,,0.11,Wunderground v.1.15,2013-11-05 23:08:00,
2013-11-05 17:14:00,56.1,54.4,29.96,SW,232,6.0,11.0,94,0.00,,,0.11,Wunderground v.1.15,2013-11-05 23:14:00,
2013-11-05 17:19:00,56.2,54.5,29.96,SW,223,6.0,12.0,94,0.00,,,0.11,Wunderground v.1.15,2013-11-05 23:19:00,
2013-11-05 17:25:00,56.2,54.5,29.96,WSW,244,8.0,11.0,94,0.00,,,0.11,Wunderground v.1.15,2013-11-05 23:25:00,
2013-11-05 17:30:00,56.3,54.6,29.97,WSW,244,7.0,11.0,94,0.00,,,0.11,Wunderground v.1.15,2013-11-05 23:30:00,
2013-11-05 17:36:00,56.3,54.3,29.97,West,262,8.0,15.0,93,0.00,,,0.11,Wunderground v.1.15,2013-11-05 23:36:00,
2013-11-05 17:41:00,56.3,54.3,29.97,West,275,9.0,11.0,93,0.00,,,0.11,Wunderground v.1.15,2013-11-05 23:41:00,
2013-11-05 17:47:00,56.4,54.4,29.97,WSW,248,10.0,12.0,93,0.00,,,0.11,Wunderground v.1.15,2013-11-05 23:47:00,
2013-11-05 17:53:00,56.4,54.4,29.96,WSW,256,9.0,11.0,93,0.00,,,0.11,Wunderground v.1.15,2013-11-05 23:53:00,
2013-11-05 17:59:00,56.4,54.4,29.96,WSW,255,9.0,11.0,93,0.00,,,0.11,Wunderground v.1.15,2013-11-05 23:59:00,
2013-11-05 18:05:00,56.4,54.4,29.96,SW,227,10.0,13.0,93,0.00,,,0.11,Wunderground v.1.15,2013-11-06 00:05:00,
2013-11-05 18:10:00,56.5,54.5,29.96,WSW,247,10.0,11.0,93,0.00,,,0.11,Wunderground v.1.15,2013-11-06 00:10:00,
2013-11-05 18:19:00,56.4,54.4,29.95,WSW,249,8.0,12.0,93,0.00,,,0.11,Wunderground v.1.15,2013-11-06 00:19:00,
2013-11-05 18:33:00,56.6,54.6,29.95,WSW,243,10.0,11.0,93,0.00,,,0.11,Wunderground v.1.15,2013-11-06 00:33:00,
2013-11-05 18:54:00,56.7,54.4,29.94,WSW,248,9.0,11.0,92,0.00,,,0.11,Wunderground v.1.15,2013-11-06 00:54:00,
2013-11-05 19:04:00,56.6,54.6,29.94,WSW,247,8.0,11.0,93,0.00,,,0.11,Wunderground v.1.15,2013-11-06 01:04:00,
2013-11-05 19:10:00,56.6,54.6,29.93,SW,236,9.0,13.0,93,0.00,,,0.11,Wunderground v.1.15,2013-11-06 01:10:00,
2013-11-05 19:15:00,56.6,54.6,29.94,WSW,251,10.0,12.0,93,0.00,,,0.11,Wunderground v.1.15,2013-11-06 01:15:00,
2013-11-05 19:21:00,56.5,54.5,29.93,WSW,247,10.0,10.0,93,0.00,,,0.11,Wunderground v.1.15,2013-11-06 01:21:00,
2013-11-05 19:26:00,56.6,54.6,29.93,SW,231,10.0,12.0,93,0.00,,,0.11,Wunderground v.1.15,2013-11-06 01:26:00,
2013-11-05 19:32:00,56.6,54.6,29.93,SW,236,10.0,11.0,93,0.00,,,0.12,Wunderground v.1.15,2013-11-06 01:32:00,
2013-11-05 19:38:00,56.6,54.6,29.94,WSW,250,10.0,12.0,93,0.00,,,0.12,Wunderground v.1.15,2013-11-06 01:38:00,
2013-11-05 19:44:00,56.5,54.5,29.93,West,265,10.0,13.0,93,0.00,,,0.12,Wunderground v.1.15,2013-11-06 01:44:00,
2013-11-05 19:50:00,56.4,54.7,29.93,WSW,254,10.0,15.0,94,0.04,,,0.13,Wunderground v.1.15,2013-11-06 01:50:00,
2013-11-05 19:55:00,56.4,54.7,29.93,SW,236,10.0,15.0,94,0.13,,,0.14,Wunderground v.1.15,2013-11-06 01:55:00,
2013-11-05 20:01:00,56.3,54.6,29.93,WSW,247,9.0,11.0,94,0.11,,,0.15,Wunderground v.1.15,2013-11-06 02:01:00,
2013-11-05 20:06:00,56.2,54.5,29.93,WSW,257,9.0,11.0,94,0.11,,,0.16,Wunderground v.1.15,2013-11-06 02:06:00,
2013-11-05 20:12:00,56.2,54.8,29.93,WSW,254,9.0,15.0,95,0.07,,,0.16,Wunderground v.1.15,2013-11-06 02:12:00,
2013-11-05 20:17:00,56.2,54.8,29.92,WNW,282,10.0,15.0,95,0.04,,,0.16,Wunderground v.1.15,2013-11-06 02:17:00,
2013-11-05 20:23:00,56.2,54.8,29.92,WSW,243,10.0,11.0,95,0.00,,,0.16,Wunderground v.1.15,2013-11-06 02:23:00,
2013-11-05 20:28:00,56.2,54.8,29.92,WSW,240,10.0,15.0,95,0.00,,,0.17,Wunderground v.1.15,2013-11-06 02:28:00,
2013-11-05 20:34:00,56.2,54.8,29.92,West,263,9.0,11.0,95,0.00,,,0.17,Wunderground v.1.15,2013-11-06 02:34:00,
2013-11-05 20:39:00,56.2,54.8,29.92,WSW,239,10.0,16.0,95,0.00,,,0.17,Wunderground v.1.15,2013-11-06 02:39:00,
2013-11-05 20:56:00,56.6,55.2,29.91,WSW,252,10.0,11.0,95,0.04,,,0.18,Wunderground v.1.15,2013-11-06 02:56:00,
2013-11-05 21:02:00,56.6,55.2,29.91,West,271,10.0,11.0,95,0.00,,,0.19,Wunderground v.1.15,2013-11-06 03:02:00,
2013-11-05 21:08:00,56.7,55.3,29.91,WSW,254,11.0,13.0,95,0.00,,,0.19,Wunderground v.1.15,2013-11-06 03:08:00,
2013-11-05 21:13:00,56.8,55.4,29.91,WSW,240,10.0,11.0,95,0.00,,,0.19,Wunderground v.1.15,2013-11-06 03:13:00,
2013-11-05 21:19:00,56.8,55.4,29.91,WSW,245,10.0,16.0,95,0.00,,,0.19,Wunderground v.1.15,2013-11-06 03:19:00,
2013-11-05 21:24:00,56.9,55.5,29.91,West,268,11.0,20.0,95,0.00,,,0.19,Wunderground v.1.15,2013-11-06 03:24:00,
2013-11-05 21:30:00,57.0,55.6,29.91,West,271,11.0,14.0,95,0.00,,,0.19,Wunderground v.1.15,2013-11-06 03:30:00,
2013-11-05 21:35:00,57.1,55.4,29.90,West,261,10.0,14.0,94,0.00,,,0.19,Wunderground v.1.15,2013-11-06 03:35:00,
2013-11-05 21:41:00,57.0,55.3,29.90,West,271,10.0,11.0,94,0.00,,,0.19,Wunderground v.1.15,2013-11-06 03:41:00,
2013-11-05 21:46:00,57.1,55.4,29.91,West,267,10.0,15.0,94,0.00,,,0.19,Wunderground v.1.15,2013-11-06 03:46:00,
2013-11-05 21:52:00,57.1,55.4,29.91,WSW,242,10.0,12.0,94,0.00,,,0.19,Wunderground v.1.15,2013-11-06 03:52:00,
2013-11-05 21:57:00,57.0,55.3,29.91,West,275,10.0,13.0,94,0.00,,,0.19,Wunderground v.1.15,2013-11-06 03:57:00,
2013-11-05 22:03:00,57.0,55.3,29.91,West,277,10.0,16.0,94,0.00,,,0.19,Wunderground v.1.15,2013-11-06 04:03:00,
2013-11-05 22:08:00,56.9,55.2,29.91,West,277,10.0,16.0,94,0.00,,,0.19,Wunderground v.1.15,2013-11-06 04:08:00,
2013-11-05 22:14:00,56.9,55.2,29.91,WNW,285,10.0,15.0,94,0.00,,,0.19,Wunderground v.1.15,2013-11-06 04:14:00,
2013-11-05 22:19:00,56.9,55.2,29.90,WSW,244,11.0,15.0,94,0.00,,,0.20,Wunderground v.1.15,2013-11-06 04:19:00,
2013-11-05 22:25:00,56.9,55.2,29.90,West,265,12.0,12.0,94,0.00,,,0.20,Wunderground v.1.15,2013-11-06 04:25:00,
2013-11-05 22:31:00,56.9,55.2,29.90,WSW,258,12.0,12.0,94,0.00,,,0.20,Wunderground v.1.15,2013-11-06 04:31:00,
2013-11-05 22:36:00,56.9,55.2,29.90,West,276,13.0,16.0,94,0.00,,,0.20,Wunderground v.1.15,2013-11-06 04:36:00,
2013-11-05 22:42:00,56.8,55.1,29.89,WSW,251,13.0,13.0,94,0.00,,,0.20,Wunderground v.1.15,2013-11-06 04:42:00,
2013-11-05 22:48:00,56.9,55.2,29.90,West,265,13.0,18.0,94,0.00,,,0.20,Wunderground v.1.15,2013-11-06 04:48:00,
2013-11-05 22:54:00,56.8,55.1,29.90,West,275,12.0,18.0,94,0.00,,,0.20,Wunderground v.1.15,2013-11-06 04:54:00,
2013-11-05 22:59:00,56.8,55.1,29.89,WSW,250,11.0,18.0,94,0.00,,,0.20,Wunderground v.1.15,2013-11-06 04:59:00,
2013-11-05 23:13:00,56.8,55.1,29.89,West,273,13.0,13.0,94,0.00,,,0.20,Wunderground v.1.15,2013-11-06 05:13:00,
2013-11-05 23:19:00,56.8,55.1,29.89,West,279,12.0,13.0,94,0.00,,,0.20,Wunderground v.1.15,2013-11-06 05:19:00,
2013-11-05 23:25:00,56.8,55.1,29.88,West,266,11.0,16.0,94,0.00,,,0.20,Wunderground v.1.15,2013-11-06 05:25:00,
2013-11-05 23:30:00,56.8,55.1,29.88,West,259,12.0,18.0,94,0.00,,,0.20,Wunderground v.1.15,2013-11-06 05:30:00,
2013-11-05 23:36:00,56.8,54.8,29.88,WSW,251,12.0,14.0,93,0.00,,,0.20,Wunderground v.1.15,2013-11-06 05:36:00,
2013-11-05 23:41:00,56.9,54.9,29.88,SSW,208,12.0,15.0,93,0.00,,,0.20,Wunderground v.1.15,2013-11-06 05:41:00,
2013-11-05 23:47:00,56.9,54.9,29.88,West,281,12.0,18.0,93,0.00,,,0.20,Wunderground v.1.15,2013-11-06 05:47:00,
2013-11-05 23:52:00,56.8,55.1,29.88,West,272,11.0,14.0,94,0.00,,,0.20,Wunderground v.1.15,2013-11-06 05:52:00,
2013-11-05 23:58:00,56.8,55.1,29.88,West,271,11.0,14.0,94,0.00,,,0.20,Wunderground v.1.15,2013-11-06 05:58:00,